NTHWK29 KDAA-KNYG

Flight info

Callsign NTHWK29
Flight time 0h 7m
Altitude 2500
Route VFR
Aircraft H60/L-V/N

Departure

Time 2026-05-09 02:39
Airport Davison Army Air Field (KDAA)

Arrival

Time 2026-05-09 02:46
Airport Quantico Marine Corps Airfield / Turner Field (KNYG)
Time Latitude Longitude Altitude Speed Heading
2026-05-09 02:36 38.71313 -77.18004 62 ft 0 kts 315°
2026-05-09 02:38 38.71325 -77.18011 80 ft 6 kts 310°
2026-05-09 02:38 38.71244 -77.18174 255 ft 51 kts 216°
2026-05-09 02:38 38.70840 -77.18294 528 ft 68 kts 199°
2026-05-09 02:38 38.70322 -77.18658 623 ft 96 kts 205°
2026-05-09 02:39 38.69720 -77.19096 790 ft 103 kts 205°
2026-05-09 02:39 38.69082 -77.19551 978 ft 104 kts 205°
2026-05-09 02:39 38.68431 -77.20010 1014 ft 115 kts 205°
2026-05-09 02:39 38.67652 -77.20393 1019 ft 122 kts 195°
2026-05-09 02:40 38.66836 -77.20725 1023 ft 125 kts 195°
2026-05-09 02:40 38.65998 -77.21067 1032 ft 127 kts 195°
2026-05-09 02:40 38.65143 -77.21413 1027 ft 128 kts 194°
2026-05-09 02:40 38.64292 -77.21756 1022 ft 128 kts 194°
2026-05-09 02:41 38.63460 -77.22169 1019 ft 128 kts 199°
2026-05-09 02:41 38.62645 -77.22613 1022 ft 127 kts 200°
2026-05-09 02:41 38.61827 -77.23057 1022 ft 127 kts 200°
2026-05-09 02:41 38.61034 -77.23566 1020 ft 127 kts 204°
2026-05-09 02:42 38.60248 -77.24116 1021 ft 127 kts 205°
2026-05-09 02:42 38.59471 -77.24658 1020 ft 127 kts 205°
2026-05-09 02:42 38.58694 -77.25204 1022 ft 127 kts 205°
2026-05-09 02:42 38.57919 -77.25758 1009 ft 126 kts 207°
2026-05-09 02:43 38.57196 -77.26298 1009 ft 112 kts 207°
2026-05-09 02:43 38.56540 -77.26771 950 ft 102 kts 205°
2026-05-09 02:43 38.55947 -77.27158 959 ft 90 kts 205°
2026-05-09 02:43 38.55427 -77.27542 929 ft 82 kts 208°
2026-05-09 02:44 38.54923 -77.27930 795 ft 87 kts 205°
2026-05-09 02:44 38.54406 -77.28317 755 ft 85 kts 208°
2026-05-09 02:44 38.53911 -77.28719 705 ft 81 kts 207°
2026-05-09 02:44 38.53455 -77.29035 702 ft 72 kts 207°
2026-05-09 02:45 38.53046 -77.29329 695 ft 64 kts 204°
2026-05-09 02:45 38.52638 -77.29575 601 ft 68 kts 199°
2026-05-09 02:45 38.52152 -77.29853 422 ft 86 kts 203°
2026-05-09 02:45 38.51572 -77.30186 308 ft 92 kts 197°
2026-05-09 02:46 38.51046 -77.30434 211 ft 72 kts 197°
2026-05-09 02:46 38.50628 -77.30627 133 ft 54 kts 195°
2026-05-09 02:46 38.50361 -77.30732 80 ft 38 kts 189°
2026-05-09 02:46 38.50181 -77.30783 51 ft 9 kts 184°
2026-05-09 02:47 38.50148 -77.30841 78 ft 3 kts 118°
2026-05-09 02:47 38.50126 -77.30840 70 ft 10 kts 115°
2026-05-09 02:47 38.50125 -77.30839 78 ft 8 kts 102°
2026-05-09 02:47 38.50118 -77.30828 34 ft 5 kts 111°
2026-05-09 02:48 38.50114 -77.30814 21 ft 4 kts 107°
2026-05-09 02:48 38.50106 -77.30808 12 ft 0 kts 112°